Location: Isle of Man Observatory
(54.1776°N, 4.6264°W)
Time: 19:12:33
(UTC+01:00)

X-37B - Pass Details

Date: 12 December 2021
Orbit: 334 x 337 km, 45.0° (Epoch: 11 January)

Event Time Altitude Azimuth Distance (km) Brightness Sun altitude
Rises 18:18:21 0° 225° (SW) 2,101 5.8 -11.1°
Reaches altitude 10° 18:21:22 10° 189° (S) 1,265 3.6 -11.5°
Maximum altitude 18:22:23 12° 168° (SSE) 1,185 3.2 -11.6°
Drops below altitude 10° 18:23:26 10° 146° (SE) 1,266 3.1 -11.8°
Enters shadow 18:24:37 - 128° (SE) 1,523 3.3 -11.9°
